Location: Ailly
(50.0793°N, 1.9944°E)
Time: 14:28:17
(UTC+00:00)

Timation 1 Rocket - Pass Details

Date: 15 January 2026
Orbit: 895 x 908 km, 70.0° (Epoch: 10 February)

Event Time Altitude Azimuth Distance (km) Brightness Sun altitude
Exits shadow 05:51:08 23° 314° (NW) 1,830 5.5 -17.6°
Maximum altitude 05:54:44 53° 247° (WSW) 1,103 4.5 -17.1°
Drops below altitude 10° 06:00:31 10° 172° (S) 2,585 7.0 -16.2°
Sets 06:03:03 0° 168° (SSE) 3,522 7.8 -15.8°
